STARLINK-5224 (55397 NORAD) Tracking and Keplerian Element Data

This shows tracking and keplerian element data for the satellite.

Feedback or suggestion? Click here.




ElementValue
Catalog55397
NameSTARLINK-5224
Epoch Orbit1518
Epoch Day127.12817374
Epoch Year2023
RAAN181.3465
Inclination69.9983
Eccentricity0.0003142
Argument of Perigee271.8339
Mean Anonmoly88.2497
Mean Motion15.69924704
Decay Rate1.68E-05
L11 55397U 23014G 23127.12817374 .00001680 00000+0 15734-4 0 9995
L22 55397 69.9983 181.3465 0003142 271.8339 88.2497 15.69924704 15186



Live tracking and technical data element details for STARLINK-5224 (NORAD 55397). STARLINK-5224 can be tracked NOW for your location showing map with azimuth and elevation plus other details from your city location.







IsCatalogInMostPopularTable: catalog: 55397, numindb: 1
Update: records affected: 1



GetName: 55397 STARLINK-5224

Hit Count: updated at: Sun, 28 May 2023 06:20:27 GMT